Year,Month,Day,Hour,Minute,Value (Times are PST for temperature in C)
2018,12,14,16,15,11.20
2018,12,14,16,16,11.10
2018,12,14,16,17,11.10
2018,12,14,16,18,11.10
2018,12,14,16,19,11.00
2018,12,14,16,20,11.00
2018,12,14,16,21,11.00
2018,12,14,16,22,11.00
2018,12,14,16,23,11.00
2018,12,14,16,24,11.00
2018,12,14,16,25,11.00
2018,12,14,16,26,11.00
2018,12,14,16,27,11.00
2018,12,14,16,28,10.90
2018,12,14,16,29,10.90
2018,12,14,16,30,10.90
2018,12,14,16,31,10.80
2018,12,14,16,32,10.80
2018,12,14,16,33,10.70
2018,12,14,16,34,10.70
2018,12,14,16,35,10.60
2018,12,14,16,36,10.60
2018,12,14,16,37,10.50
2018,12,14,16,38,10.40
2018,12,14,16,39,10.40
2018,12,14,16,40,10.30
2018,12,14,16,41,10.30
2018,12,14,16,42,10.20
2018,12,14,16,43,10.10
2018,12,14,16,44,10.00
2018,12,14,16,45,10.00
2018,12,14,16,46,9.90
2018,12,14,16,47,9.90
2018,12,14,16,48,9.80
2018,12,14,16,49,9.70
2018,12,14,16,50,9.70
2018,12,14,16,51,9.60
2018,12,14,16,52,9.60
2018,12,14,16,53,9.50
2018,12,14,16,54,9.40
2018,12,14,16,55,9.40
2018,12,14,16,56,9.40
2018,12,14,16,57,9.40
2018,12,14,16,58,9.30
2018,12,14,16,59,9.30
2018,12,14,17,00,9.30
2018,12,14,17,01,9.30
2018,12,14,17,02,9.20
2018,12,14,17,03,9.20
2018,12,14,17,04,9.20
2018,12,14,17,05,9.20
2018,12,14,17,06,9.20
2018,12,14,17,07,9.20
2018,12,14,17,08,9.30
2018,12,14,17,09,9.30
2018,12,14,17,10,9.40
2018,12,14,17,11,9.50
2018,12,14,17,12,9.60
2018,12,14,17,13,9.60
2018,12,14,17,14,9.70
2018,12,14,17,15,9.80
2018,12,14,17,16,9.80
2018,12,14,17,17,9.90
2018,12,14,17,18,10.00
2018,12,14,17,19,10.20
2018,12,14,17,20,10.40
2018,12,14,17,21,10.50
2018,12,14,17,22,10.50
2018,12,14,17,23,10.60
2018,12,14,17,24,10.60
2018,12,14,17,25,10.50
2018,12,14,17,26,10.50
2018,12,14,17,27,10.40
2018,12,14,17,28,10.40
2018,12,14,17,29,10.40
2018,12,14,17,30,10.30
2018,12,14,17,31,10.30
2018,12,14,17,32,10.20
2018,12,14,17,33,10.10
2018,12,14,17,34,10.00
2018,12,14,17,35,9.90
2018,12,14,17,36,9.90
2018,12,14,17,37,9.80
2018,12,14,17,38,9.80
2018,12,14,17,39,9.70
2018,12,14,17,40,9.70
2018,12,14,17,41,9.60
2018,12,14,17,42,9.60
2018,12,14,17,43,9.60
2018,12,14,17,44,9.50
2018,12,14,17,45,9.50
2018,12,14,17,46,9.40
2018,12,14,17,47,9.40
2018,12,14,17,48,9.40
2018,12,14,17,49,9.40
2018,12,14,17,50,9.40
2018,12,14,17,51,9.40
2018,12,14,17,52,9.40
2018,12,14,17,53,9.40
2018,12,14,17,54,9.50
2018,12,14,17,55,9.50
2018,12,14,17,56,9.40
2018,12,14,17,57,9.40
2018,12,14,17,58,9.40
2018,12,14,17,59,9.40
2018,12,14,18,00,9.40
2018,12,14,18,01,9.30
2018,12,14,18,02,9.30
2018,12,14,18,03,9.20
2018,12,14,18,04,9.10
2018,12,14,18,05,9.00
2018,12,14,18,06,8.90
2018,12,14,18,07,8.80
2018,12,14,18,08,8.70
2018,12,14,18,09,8.60
2018,12,14,18,10,8.50
2018,12,14,18,11,8.40
2018,12,14,18,12,8.30
2018,12,14,18,13,8.20
2018,12,14,18,14,8.10
2018,12,14,18,15,8.00
2018,12,14,18,16,8.00
2018,12,14,18,17,7.90
2018,12,14,18,18,7.80
2018,12,14,18,19,7.70
2018,12,14,18,20,7.70
2018,12,14,18,21,7.60
2018,12,14,18,22,7.60
2018,12,14,18,23,7.50
2018,12,14,18,24,7.40
2018,12,14,18,25,7.40
2018,12,14,18,26,7.30
2018,12,14,18,27,7.30
2018,12,14,18,28,7.20
2018,12,14,18,29,7.20
2018,12,14,18,30,7.20
2018,12,14,18,31,7.10
2018,12,14,18,32,7.10
2018,12,14,18,33,7.00
2018,12,14,18,34,7.00
2018,12,14,18,35,6.90
2018,12,14,18,36,6.90
2018,12,14,18,37,6.90
2018,12,14,18,38,6.90
2018,12,14,18,39,6.90
2018,12,14,18,40,6.80
2018,12,14,18,41,6.80
2018,12,14,18,42,6.80
2018,12,14,18,43,6.80
2018,12,14,18,44,6.80
2018,12,14,18,45,6.80
2018,12,14,18,46,6.80
2018,12,14,18,47,6.80
2018,12,14,18,48,6.80
2018,12,14,18,49,6.80
2018,12,14,18,50,6.70
2018,12,14,18,51,6.70
2018,12,14,18,52,6.70
2018,12,14,18,53,6.60
2018,12,14,18,54,6.60
2018,12,14,18,55,6.60
2018,12,14,18,56,6.60
2018,12,14,18,57,6.50
2018,12,14,18,58,6.50
2018,12,14,18,59,6.50
2018,12,14,19,00,6.60
2018,12,14,19,01,6.60
2018,12,14,19,02,6.60
2018,12,14,19,03,6.60
2018,12,14,19,04,6.70
2018,12,14,19,05,6.70
2018,12,14,19,06,6.70
2018,12,14,19,07,6.70
2018,12,14,19,08,6.70
2018,12,14,19,09,6.70
2018,12,14,19,10,6.70
2018,12,14,19,11,6.80
2018,12,14,19,12,6.80
2018,12,14,19,13,6.80
2018,12,14,19,14,6.80
2018,12,14,19,15,6.80
2018,12,14,19,16,6.80
2018,12,14,19,17,6.80
2018,12,14,19,18,6.80
2018,12,14,19,19,6.80
2018,12,14,19,20,6.70
2018,12,14,19,21,6.70
2018,12,14,19,22,6.70
2018,12,14,19,23,6.70
2018,12,14,19,24,6.70
2018,12,14,19,25,6.70
2018,12,14,19,26,6.70
2018,12,14,19,27,6.70
2018,12,14,19,28,6.70
2018,12,14,19,29,6.70
2018,12,14,19,30,6.70
2018,12,14,19,31,6.80
2018,12,14,19,32,6.80
2018,12,14,19,33,6.80
2018,12,14,19,34,6.80
2018,12,14,19,35,6.80
2018,12,14,19,36,6.80
2018,12,14,19,37,6.80
2018,12,14,19,38,6.80
2018,12,14,19,39,6.80
2018,12,14,19,40,6.80
2018,12,14,19,41,6.80
2018,12,14,19,42,6.80
2018,12,14,19,43,6.90
2018,12,14,19,44,6.80
2018,12,14,19,45,6.80
2018,12,14,19,46,6.80
2018,12,14,19,47,6.80
2018,12,14,19,48,6.80
2018,12,14,19,49,6.80
2018,12,14,19,50,6.80
2018,12,14,19,51,6.80
2018,12,14,19,52,6.70
2018,12,14,19,53,6.70
2018,12,14,19,54,6.70
2018,12,14,19,55,6.70
2018,12,14,19,56,6.70
2018,12,14,19,57,6.70
2018,12,14,19,58,6.70
2018,12,14,19,59,6.70
2018,12,14,20,00,6.70
2018,12,14,20,01,6.70
2018,12,14,20,02,6.70
2018,12,14,20,03,6.70
2018,12,14,20,04,6.80
2018,12,14,20,05,6.80
2018,12,14,20,06,6.80
2018,12,14,20,07,6.80
2018,12,14,20,08,6.80
2018,12,14,20,09,6.80
2018,12,14,20,10,6.80
2018,12,14,20,11,6.80
2018,12,14,20,12,6.80
2018,12,14,20,13,6.80
2018,12,14,20,14,6.80
2018,12,14,20,15,6.80
2018,12,14,20,16,6.80
2018,12,14,20,17,6.80
2018,12,14,20,18,6.90
2018,12,14,20,19,6.90
2018,12,14,20,20,6.90
2018,12,14,20,21,6.90
2018,12,14,20,22,7.00
2018,12,14,20,23,7.00
2018,12,14,20,24,7.00
2018,12,14,20,25,7.00
2018,12,14,20,26,7.10
2018,12,14,20,27,7.10
2018,12,14,20,28,7.10
2018,12,14,20,29,7.10
2018,12,14,20,30,7.10
2018,12,14,20,31,7.10
2018,12,14,20,32,7.10
2018,12,14,20,33,7.10
2018,12,14,20,34,7.10
2018,12,14,20,35,7.10
2018,12,14,20,36,7.10
2018,12,14,20,37,7.10
2018,12,14,20,38,7.10
2018,12,14,20,39,7.10
2018,12,14,20,40,7.10
2018,12,14,20,41,7.00
2018,12,14,20,42,7.00
2018,12,14,20,43,6.90
2018,12,14,20,44,6.90
2018,12,14,20,45,6.90
2018,12,14,20,46,6.90
2018,12,14,20,47,6.80
2018,12,14,20,48,6.80
2018,12,14,20,49,6.80
2018,12,14,20,50,6.70
2018,12,14,20,51,6.70
2018,12,14,20,52,6.70
2018,12,14,20,53,6.70
2018,12,14,20,54,6.70
2018,12,14,20,55,6.70
2018,12,14,20,56,6.70
2018,12,14,20,57,6.60
2018,12,14,20,58,6.60
2018,12,14,20,59,6.60
2018,12,14,21,00,6.60
2018,12,14,21,01,6.60
2018,12,14,21,02,6.60
2018,12,14,21,03,6.60
2018,12,14,21,04,6.60
2018,12,14,21,05,6.50
2018,12,14,21,06,6.50
2018,12,14,21,07,6.50
2018,12,14,21,08,6.50
2018,12,14,21,09,6.40
2018,12,14,21,10,6.40
2018,12,14,21,11,6.40
2018,12,14,21,12,6.40
2018,12,14,21,13,6.40
2018,12,14,21,14,6.40
2018,12,14,21,15,6.40
2018,12,14,21,16,6.30
2018,12,14,21,17,6.30
2018,12,14,21,18,6.30
2018,12,14,21,19,6.30
2018,12,14,21,20,6.30
2018,12,14,21,21,6.20
2018,12,14,21,22,6.20
2018,12,14,21,23,6.20
2018,12,14,21,24,6.20
2018,12,14,21,25,6.20
2018,12,14,21,26,6.20
2018,12,14,21,27,6.20
2018,12,14,21,28,6.20
2018,12,14,21,29,6.20
2018,12,14,21,30,6.20
2018,12,14,21,31,6.20
2018,12,14,21,32,6.20
2018,12,14,21,33,6.20
2018,12,14,21,34,6.20
2018,12,14,21,35,6.20
2018,12,14,21,36,6.20
2018,12,14,21,37,6.20
2018,12,14,21,38,6.20
2018,12,14,21,39,6.20
2018,12,14,21,40,6.20
2018,12,14,21,41,6.20
2018,12,14,21,42,6.20
2018,12,14,21,43,6.20
2018,12,14,21,44,6.20
2018,12,14,21,45,6.20
2018,12,14,21,46,6.20
2018,12,14,21,47,6.20
2018,12,14,21,48,6.20
2018,12,14,21,49,6.20
2018,12,14,21,50,6.20
2018,12,14,21,51,6.20
2018,12,14,21,52,6.20
2018,12,14,21,53,6.20
2018,12,14,21,54,6.20
2018,12,14,21,55,6.20
2018,12,14,21,56,6.20
2018,12,14,21,57,6.20
2018,12,14,21,58,6.20
2018,12,14,21,59,6.20
2018,12,14,22,00,6.20
2018,12,14,22,01,6.10
2018,12,14,22,02,6.20
2018,12,14,22,03,6.20
2018,12,14,22,04,6.20
2018,12,14,22,05,6.20
2018,12,14,22,06,6.10
2018,12,14,22,07,6.10
2018,12,14,22,08,6.10
2018,12,14,22,09,6.10
2018,12,14,22,10,6.10
2018,12,14,22,11,6.10
2018,12,14,22,12,6.10
2018,12,14,22,13,6.00
2018,12,14,22,14,6.00
2018,12,14,22,15,6.00
2018,12,14,22,16,6.00
2018,12,14,22,17,5.90
2018,12,14,22,18,5.90
2018,12,14,22,19,5.90
2018,12,14,22,20,5.90
2018,12,14,22,21,5.90
2018,12,14,22,22,5.90
2018,12,14,22,23,5.90
2018,12,14,22,24,5.90
2018,12,14,22,25,5.90
2018,12,14,22,26,5.90
2018,12,14,22,27,5.90
2018,12,14,22,28,5.90
2018,12,14,22,29,5.90
2018,12,14,22,30,6.00
2018,12,14,22,31,6.00
2018,12,14,22,32,6.00
2018,12,14,22,33,6.00
2018,12,14,22,34,6.00
2018,12,14,22,35,5.90
2018,12,14,22,36,6.00
2018,12,14,22,37,6.00
2018,12,14,22,38,6.00
2018,12,14,22,39,6.00
2018,12,14,22,40,6.00
2018,12,14,22,41,6.00
2018,12,14,22,42,6.00
2018,12,14,22,43,6.00
2018,12,14,22,44,6.00
2018,12,14,22,45,6.00
2018,12,14,22,46,6.00
2018,12,14,22,47,6.00
2018,12,14,22,48,6.00
2018,12,14,22,49,5.90
2018,12,14,22,50,5.90
2018,12,14,22,51,5.90
2018,12,14,22,52,5.90
2018,12,14,22,53,5.90
2018,12,14,22,54,5.90
2018,12,14,22,55,5.90
2018,12,14,22,56,5.90
2018,12,14,22,57,5.80
2018,12,14,22,58,5.80
2018,12,14,22,59,5.80
2018,12,14,23,00,5.80
2018,12,14,23,01,5.90
2018,12,14,23,02,5.90
2018,12,14,23,03,5.90
2018,12,14,23,04,5.90
2018,12,14,23,05,5.80
2018,12,14,23,06,5.80
2018,12,14,23,07,5.80
2018,12,14,23,08,5.80
2018,12,14,23,09,5.80
2018,12,14,23,10,5.80
2018,12,14,23,11,5.80
2018,12,14,23,12,5.80
2018,12,14,23,13,5.90
2018,12,14,23,14,5.90
2018,12,14,23,15,5.90
2018,12,14,23,16,5.90
2018,12,14,23,17,6.00
2018,12,14,23,18,6.00
2018,12,14,23,19,6.10
2018,12,14,23,20,6.10
2018,12,14,23,21,6.10
2018,12,14,23,22,6.10
2018,12,14,23,23,6.20
2018,12,14,23,24,6.20
2018,12,14,23,25,6.20
2018,12,14,23,26,6.20
2018,12,14,23,27,6.20
2018,12,14,23,28,6.20
2018,12,14,23,29,6.20
2018,12,14,23,30,6.20
2018,12,14,23,31,6.20
2018,12,14,23,32,6.30
2018,12,14,23,33,6.30
2018,12,14,23,34,6.30
2018,12,14,23,35,6.30
2018,12,14,23,36,6.40
2018,12,14,23,37,6.40
2018,12,14,23,38,6.40
2018,12,14,23,39,6.50
2018,12,14,23,40,6.50
2018,12,14,23,41,6.60
2018,12,14,23,42,6.60
2018,12,14,23,43,6.60
2018,12,14,23,44,6.60
2018,12,14,23,45,6.60
2018,12,14,23,46,6.60
2018,12,14,23,47,6.60
2018,12,14,23,48,6.60
2018,12,14,23,49,6.60
2018,12,14,23,50,6.60
2018,12,14,23,51,6.60
2018,12,14,23,52,6.60
2018,12,14,23,53,6.60
2018,12,14,23,54,6.60
2018,12,14,23,55,6.70
2018,12,14,23,56,6.70
2018,12,14,23,57,6.70
2018,12,14,23,58,6.60
2018,12,14,23,59,6.60
